Theta_e
324 327 329 335 338 339 341 343 338 344 343 342 341 343 341 341 344 346 342 336 330 335 340 335 328 330 329 330 332 332 331 331 333 333 332 328 325 324 323 324 325 325 326 327 328 325 325 326 325
326 331 333 334 341 340 342 337 343 344 342 342 341 342 342 343 341 343 339 336 334 335 340 342 327 328 328 329 331 331 331 330 332 331 330 327 323 322 322 324 324 324 325 326 327 325 325 325 325
333 333 337 339 341 342 341 338 339 342 342 342 343 341 342 343 342 341 337 334 334 334 338 333 326 326 327 328 330 331 331 331 331 330 329 329 325 323 323 325 326 326 326 327 327 327 324 319 320
335 332 333 340 342 341 339 338 342 343 339 340 339 340 341 341 341 339 336 334 334 336 338 329 325 325 327 329 331 332 332 332 333 334 331 329 327 325 325 325 327 327 327 327 328 327 325 318 317
327 333 338 341 341 339 339 337 342 342 342 341 339 340 344 340 342 341 335 335 334 335 337 338 326 326 327 328 330 332 331 331 334 335 335 332 329 325 325 327 328 329 328 327 328 326 325 318 318
326 333 334 338 340 338 338 336 341 340 342 342 340 340 340 340 343 342 340 334 332 334 336 341 337 334 335 331 331 332 332 332 334 335 333 332 327 325 325 326 328 329 328 328 328 324 321 318 319
327 329 333 338 339 339 338 336 342 341 343 341 338 339 339 342 342 341 341 336 335 337 339 341 344 343 341 341 341 340 336 333 333 335 335 332 329 327 327 328 328 329 329 329 329 323 319 320 320
327 329 335 337 337 338 337 339 339 341 343 337 338 337 337 341 342 340 337 334 336 337 338 338 325 329 328 341 338 339 340 338 335 335 336 334 331 327 326 327 328 329 330 331 330 321 320 321 320
323 327 328 331 336 337 335 340 336 337 339 338 339 339 336 342 341 339 335 335 335 338 331 325 329 328 338 340 341 339 341 340 339 338 336 333 336 333 328 329 327 328 329 330 329 321 321 319 318
324 326 326 327 334 336 337 339 339 339 340 340 340 338 340 342 340 338 336 337 338 339 326 328 336 332 340 339 341 340 337 338 339 343 343 338 333 331 329 330 329 333 332 331 328 321 321 319 320
321 325 323 324 328 334 337 337 336 339 341 340 340 339 341 343 342 341 342 342 341 341 338 341 339 340 338 334 332 333 330 332 338 340 339 336 333 334 332 332 334 340 337 333 324 322 321 319 319
321 321 321 323 329 333 336 335 335 337 339 336 339 339 340 343 344 344 343 343 343 343 342 340 337 338 340 338 335 329 329 329 332 337 338 336 335 335 333 331 328 332 331 326 322 324 321 319 318
320 322 322 327 329 333 334 336 335 334 334 333 338 339 341 342 342 341 342 343 343 343 341 337 338 337 337 335 332 329 333 335 338 334 336 337 335 335 332 333 328 326 325 325 325 324 324 323 321
323 322 329 332 333 333 336 335 334 332 335 339 339 339 340 342 341 340 339 339 337 331 333 332 336 339 338 333 336 332 332 336 336 338 337 338 335 335 330 333 332 328 325 326 325 325 325 324 323
324 329 330 332 334 335 332 337 333 332 339 341 342 341 340 341 339 338 337 333 335 330 328 331 338 337 336 334 332 332 329 331 335 337 338 338 335 334 330 332 333 332 328 325 325 325 324 324 323
328 329 332 331 334 332 334 338 335 336 341 342 341 341 342 340 338 336 336 335 336 334 331 332 336 338 333 332 331 331 334 335 336 337 337 337 335 334 333 335 333 331 330 327 325 325 325 324 323
328 332 332 332 333 335 336 337 337 338 341 343 341 341 341 343 342 339 337 336 338 332 333 341 337 334 334 335 336 336 335 334 335 337 336 335 334 333 332 332 330 329 329 326 326 325 323 323 323
330 331 334 336 335 337 337 337 337 338 340 342 342 341 342 342 342 342 342 342 339 335 336 333 337 332 331 329 330 334 334 335 334 334 334 333 332 331 330 332 330 328 329 327 326 324 323 321 320
327 333 337 335 332 332 333 334 335 333 336 340 340 341 342 342 340 340 341 337 335 332 330 331 331 329 329 331 336 337 339 338 334 331 327 325 324 323 323 327 328 327 327 326 325 323 322 320 318
333 333 335 331 330 332 333 333 333 335 340 340 339 341 342 341 340 341 338 334 332 333 334 332 332 333 334 330 331 333 335 335 328 325 324 325 324 322 321 320 322 320 322 322 320 319 317 316 316
329 335 334 332 329 330 331 333 334 333 339 341 340 339 341 341 342 341 337 337 336 333 331 331 332 333 332 331 333 333 334 331 328 327 325 323 321 320 319 319 319 319 318 318 318 317 317 316 316
333 328 329 331 332 333 329 334 334 332 338 342 344 343 342 341 341 339 337 334 332 330 331 331 330 329 327 327 328 328 326 326 324 323 321 320 319 318 316 316 316 316 315 316 315 315 316 316 315
332 329 331 332 334 334 333 334 334 332 337 342 344 343 342 341 339 336 331 330 329 329 328 326 325 324 324 323 323 322 322 321 321 318 318 317 316 315 313 313 312 312 311 312 313 314 314 314 314
328 330 331 331 334 336 333 334 335 335 335 338 339 339 337 334 332 329 328 327 326 326 325 325 324 323 321 320 318 317 317 316 315 314 313 311 311 311 311 311 310 311 311 311 312 312 313 313 313
329 332 333 335 336 337 331 334 336 333 333 336 337 336 334 332 330 328 327 326 325 325 324 323 323 322 319 317 315 313 313 313 312 312 311 310 310 310 311 311 311 311 312 312 312 313 313 313 313
332 332 331 333 338 336 332 336 335 331 333 333 332 332 332 331 328 327 326 325 325 324 324 323 321 319 317 315 314 313 312 311 310 310 310 310 310 310 311 311 311 311 312 312 311 311 312 312 312
334 336 330 336 330 334 334 334 332 332 334 331 332 331 330 329 328 326 326 326 324 324 322 320 319 318 315 314 313 312 311 311 310 310 310 310 311 311 311 311 311 311 311 309 309 310 309 311 311
333 330 334 333 337 335 334 334 335 336 336 331 332 331 329 328 326 325 325 325 324 323 320 319 317 315 314 313 312 311 310 310 310 311 311 311 311 311 311 310 310 310 310 310 311 311 310 310 310
333 335 331 332 331 335 335 334 331 336 334 332 331 330 330 328 325 324 324 324 323 321 320 318 317 315 314 312 311 311 310 310 311 311 311 311 312 311 311 310 309 309 311 311 309 309 309 309 310
332 333 331 334 337 333 335 336 331 332 332 332 331 329 329 327 326 323 323 324 324 323 321 319 316 314 313 311 311 311 311 311 311 311 311 311 311 311 311 311 311 312 311 309 308 308 309 310 311
Wind_Speed
10 10 7 2 1 0 2 3 2 2 1 2 9 3 2 2 1 3 3 13 16 22 19 19 18 16 13 12 11 10 10 9 9 9 9 9 9 8 8 9 9 10 10 11 11 12 12 12 12
10 7 1 1 2 5 4 1 3 3 5 8 8 5 2 2 2 4 10 7 16 20 18 17 18 15 13 12 11 10 10 9 9 9 9 8 8 8 7 8 9 9 9 10 10 10 11 11 12
5 2 2 3 1 3 4 1 3 5 6 3 3 3 2 3 2 10 5 14 20 20 18 18 18 16 14 13 12 11 10 10 9 8 8 7 7 6 6 6 6 7 7 7 8 9 10 11 12
2 2 2 2 2 0 3 3 4 8 3 3 5 5 3 4 6 5 16 15 20 18 16 17 16 15 13 11 10 9 8 7 6 6 6 7 7 5 4 4 4 4 5 6 6 6 8 10 12
2 1 3 3 2 3 5 4 3 5 4 4 2 4 5 2 2 10 16 17 19 17 15 13 13 12 11 11 10 10 10 9 8 7 7 7 7 6 4 3 2 2 2 3 4 4 5 7 10
1 1 3 6 5 3 5 3 5 4 3 3 3 7 4 1 7 12 12 15 16 15 14 9 7 7 8 9 10 11 10 10 9 9 9 9 8 9 9 8 5 2 1 3 4 3 3 5 8
2 2 2 4 4 6 2 4 3 2 3 3 5 6 1 5 5 9 7 10 10 8 5 5 3 5 7 11 14 14 14 11 10 10 10 10 10 9 9 8 7 7 6 5 5 2 3 5 8
3 1 1 4 3 4 1 6 4 2 2 5 1 1 3 7 11 12 12 12 7 6 5 4 12 13 11 8 10 14 18 17 14 11 11 10 11 12 11 11 10 9 8 7 6 3 2 6 8
2 1 3 4 3 2 4 6 2 2 3 3 4 1 3 18 16 14 11 8 6 4 9 14 14 15 9 6 7 9 15 17 19 16 14 11 10 12 13 13 14 13 12 11 8 6 4 6 7
2 2 5 3 5 3 7 7 6 4 5 6 3 4 13 17 15 10 9 9 7 6 13 13 11 9 5 3 7 10 15 19 21 17 15 10 12 13 14 15 16 17 16 14 10 8 4 4 4
3 4 3 2 6 5 7 8 7 8 6 7 8 9 13 15 11 9 7 6 7 6 10 9 7 10 11 10 18 28 26 25 25 21 20 16 16 13 14 15 10 8 13 11 9 6 2 3 3
4 8 7 3 3 6 5 7 5 9 3 4 4 14 13 11 9 7 7 6 5 3 5 12 16 13 19 17 13 26 25 32 29 23 24 22 19 16 12 9 6 5 6 10 10 6 6 3 4
4 4 3 5 5 2 5 3 3 4 6 5 13 14 12 11 11 10 9 6 4 3 6 11 16 18 17 10 8 15 27 28 26 25 23 25 24 19 12 9 8 8 9 8 8 7 6 4 4
2 2 8 6 8 5 3 1 2 11 7 10 15 14 12 13 13 13 10 7 4 8 10 12 11 10 7 7 17 17 22 18 21 23 23 25 22 19 13 11 11 10 10 10 10 9 8 6 7
2 1 7 14 4 5 6 2 10 15 7 14 13 13 12 13 12 9 9 7 6 8 12 11 6 6 6 12 11 18 23 25 29 22 19 18 17 14 12 11 13 14 14 14 12 10 10 10 10
3 3 4 12 6 3 4 7 18 14 13 14 12 10 11 9 10 8 9 2 5 7 12 10 4 5 7 10 13 21 25 24 22 20 18 15 13 12 11 10 12 14 14 13 11 10 11 10 12
8 8 7 4 12 2 5 6 16 12 16 13 8 7 7 7 5 6 1 1 7 8 10 10 10 3 9 13 16 17 19 20 18 16 11 9 7 9 13 14 14 15 11 9 9 10 8 11 12
5 6 6 5 7 17 17 14 15 15 15 10 7 6 4 4 3 7 5 8 6 9 13 12 9 12 17 21 17 15 17 17 14 12 13 16 16 13 13 9 9 9 7 9 8 7 8 10 11
10 12 14 9 3 13 14 17 16 12 13 5 5 7 2 3 7 6 9 9 10 17 21 20 16 17 17 13 14 15 14 13 10 12 12 13 15 16 16 13 11 9 9 8 7 6 6 7 7
14 15 8 10 15 15 16 16 12 16 12 11 7 6 7 7 7 12 13 14 17 18 19 19 17 15 14 10 11 9 10 7 10 12 13 16 18 17 15 14 13 12 10 9 7 6 7 9 10
6 7 9 16 9 8 9 14 13 11 14 13 13 9 9 9 11 12 16 15 15 17 18 18 18 16 14 16 14 13 7 8 10 13 14 14 14 13 14 13 12 11 9 8 8 8 8 13 12
2 3 8 15 10 4 6 5 8 11 13 14 12 12 10 10 11 13 17 18 18 18 17 19 20 21 19 20 16 16 14 13 11 12 12 13 13 13 13 12 11 10 10 10 11 11 11 10 12
2 4 13 8 9 5 7 4 4 5 9 12 13 12 11 10 9 11 13 15 17 18 19 19 21 22 20 20 19 17 17 13 11 13 14 14 13 13 14 14 13 13 12 12 12 12 12 10 8
8 8 8 4 1 2 4 2 3 2 3 5 9 11 11 10 11 13 14 14 15 15 18 20 22 22 22 22 23 21 18 17 17 17 17 17 16 15 15 15 14 12 12 12 12 12 12 11 12
2 2 3 4 1 1 3 2 3 2 3 4 6 8 7 7 8 9 13 16 18 19 17 17 18 17 19 20 22 21 20 18 17 17 16 17 17 15 15 15 14 13 12 12 12 11 10 9 10
4 1 1 3 2 2 0 2 4 2 2 5 5 6 6 7 8 11 14 12 12 13 13 13 13 14 15 16 16 17 17 14 14 14 13 12 13 12 13 14 13 13 13 13 12 12 11 10 11
2 2 2 5 1 3 1 1 3 3 4 5 6 8 8 7 7 8 8 8 10 10 9 10 10 10 13 13 15 16 15 14 14 13 12 12 12 13 13 13 13 12 12 13 14 13 15 13 13
3 6 1 1 2 2 1 3 3 8 9 4 4 4 3 2 5 7 7 7 7 6 6 7 8 11 12 13 15 15 14 13 12 12 13 13 13 13 13 13 13 13 14 14 14 14 17 14 15
1 2 4 3 2 1 1 0 1 10 8 4 2 0 2 0 5 6 7 6 6 5 6 7 9 12 13 15 16 13 13 14 14 13 14 14 14 13 13 14 17 16 15 15 15 16 14 14 16
1 2 1 2 1 2 2 1 1 6 6 4 3 2 3 0 3 7 8 7 6 6 6 7 10 11 12 14 15 14 13 14 15 16 15 15 15 14 14 16 16 16 16 16 16 15 15 16 17
Wind_Direction
135 140 144 213 178 8 72 38 282 276 102 75 136 150 204 77 338 357 329 165 160 160 163 167 167 167 166 160 156 151 147 145 145 142 138 132 123 114 99 85 77 73 66 60 56 56 52 48 44
138 131 125 289 36 41 67 297 351 24 40 125 120 110 145 92 93 97 125 168 162 163 165 169 171 170 170 170 168 164 163 164 161 159 155 150 140 127 111 96 86 79 67 59 51 49 46 40 33
120 50 304 42 75 10 357 22 72 95 102 127 114 36 43 45 78 150 168 158 162 169 171 175 174 176 180 181 181 179 178 175 173 171 169 164 156 144 126 105 88 77 68 54 46 42 39 36 32
353 173 114 3 13 281 286 359 113 127 99 72 106 81 89 359 139 171 159 161 165 172 176 183 180 184 189 191 192 193 195 192 190 188 185 184 184 178 158 137 117 97 65 43 31 27 30 36 32
35 335 14 1 319 280 267 302 175 121 104 89 27 97 93 37 135 152 160 162 168 173 180 186 191 196 200 205 207 208 210 206 206 206 216 220 212 207 206 203 186 111 62 23 4 7 28 28 23
78 303 4 344 326 298 289 272 172 107 84 89 102 123 123 262 153 157 159 166 173 177 180 182 209 223 243 244 237 233 228 224 222 221 225 226 223 219 220 227 230 228 280 324 326 353 40 20 15
41 14 346 293 302 304 335 114 176 129 70 66 128 139 107 182 154 144 144 164 170 170 160 172 178 222 276 287 288 280 267 250 239 240 241 239 241 244 243 242 239 245 257 278 310 329 24 12 7
111 113 187 257 314 288 32 132 159 173 59 107 179 97 152 140 134 158 158 156 146 135 148 218 221 224 225 237 254 281 287 283 270 257 259 257 254 252 254 259 261 250 251 265 293 259 311 353 355
145 189 242 259 190 257 152 170 116 79 136 180 175 193 75 132 154 153 137 131 128 134 208 217 237 243 257 258 269 286 299 297 287 274 259 256 256 261 264 262 262 256 247 252 254 241 295 328 347
213 242 241 226 164 213 182 180 160 183 194 208 161 82 126 144 155 145 157 149 153 187 237 244 249 249 245 262 314 321 306 302 287 283 277 272 275 273 275 279 271 263 247 238 234 236 263 347 18
153 248 302 315 221 221 202 179 171 212 227 230 201 140 144 147 153 160 153 164 180 207 266 274 294 273 262 264 301 295 296 297 297 285 280 277 280 279 281 281 270 233 229 225 208 232 238 331 2
254 255 256 328 157 185 193 144 184 213 229 17 136 146 145 152 151 151 134 128 155 206 272 278 280 273 271 268 216 252 270 282 291 290 285 277 280 285 269 258 256 213 219 230 231 229 256 296 336
228 293 44 332 163 200 143 202 207 327 275 64 129 140 134 134 122 115 116 143 163 276 319 300 292 293 290 269 226 231 263 280 291 290 283 279 279 287 263 254 252 254 254 240 244 242 246 257 289
241 268 45 29 109 112 205 169 145 21 16 112 132 130 131 129 116 111 105 105 92 356 343 331 313 314 281 287 243 245 278 289 301 302 285 279 279 286 275 258 255 261 264 259 258 256 260 273 284
302 22 74 37 66 69 321 218 42 5 98 106 116 117 114 100 100 101 129 140 54 9 346 345 321 293 301 305 280 260 286 295 315 315 304 301 280 286 278 272 282 279 271 271 264 267 272 279 280
60 61 78 28 0 37 260 42 16 12 95 92 94 95 93 90 113 136 157 104 37 22 9 33 335 318 319 308 296 290 300 312 320 320 307 306 287 278 282 291 304 306 291 278 273 271 274 278 279
34 76 70 57 16 25 47 36 14 71 82 84 97 120 104 115 118 153 26 48 33 21 29 33 44 9 332 337 318 310 317 318 319 322 317 307 284 303 309 312 312 311 298 285 274 275 280 285 285
93 100 59 84 49 76 74 68 58 69 93 117 137 141 161 123 54 15 16 3 13 34 32 20 10 7 349 338 341 327 329 334 331 327 329 326 328 336 328 314 320 311 300 294 293 285 286 277 282
105 120 123 113 73 63 68 56 33 28 59 69 23 81 117 42 36 25 32 32 30 33 19 19 7 5 358 360 2 355 341 344 360 353 357 4 6 3 4 7 360 350 343 326 312 312 292 289 282
111 124 118 90 97 93 86 67 56 35 27 31 39 55 59 49 41 55 55 39 21 11 7 12 9 359 5 357 343 339 334 356 21 16 9 358 356 359 5 7 8 6 1 356 346 318 301 293 298
85 140 166 142 124 107 89 60 45 45 45 50 46 42 39 38 30 36 37 26 20 18 14 13 11 14 11 5 2 14 30 18 13 7 6 8 8 8 8 7 4 358 351 336 330 313 298 299 293
68 315 177 148 168 124 345 113 46 18 48 47 50 44 41 32 24 25 17 19 19 22 35 45 42 41 38 39 41 43 41 33 12 7 6 4 5 9 7 4 1 355 339 326 316 309 305 307 303
25 109 141 120 95 157 38 116 102 25 40 32 32 30 36 37 30 27 25 28 36 40 41 43 44 45 43 43 43 37 34 25 11 3 359 356 357 358 359 359 357 352 344 333 325 320 316 305 287
140 96 75 68 94 106 11 292 132 20 327 32 44 40 34 37 39 46 55 51 41 40 40 39 33 34 33 31 29 27 22 11 3 358 358 356 355 356 360 360 355 350 347 342 336 322 307 302 297
49 163 170 203 144 52 330 231 83 340 15 12 29 46 40 41 55 55 45 36 33 32 33 35 30 32 27 25 20 15 10 6 4 3 359 358 356 357 354 355 353 350 346 342 335 329 323 312 300
56 326 13 295 200 166 85 202 107 348 82 81 68 61 64 59 54 45 34 30 30 31 38 35 35 32 25 20 18 11 7 6 6 3 2 360 357 351 344 342 342 339 337 334 331 327 323 315 308
111 61 70 107 41 225 44 161 202 191 155 105 72 60 55 49 47 43 28 27 27 32 40 36 37 31 22 16 11 7 6 4 1 2 2 358 354 349 345 345 340 337 335 333 333 325 323 315 308
33 127 218 104 170 246 177 268 231 187 189 123 106 67 76 54 51 42 27 28 28 46 45 37 35 26 18 12 6 4 6 5 0 358 359 358 358 359 356 351 347 342 340 337 333 327 328 316 310
91 119 68 94 342 283 280 231 201 193 167 151 138 22 166 105 37 33 20 18 27 35 33 34 26 18 12 8 3 3 1 2 1 359 357 358 358 357 355 353 354 353 349 350 345 347 345 340 330
21 81 74 315 160 54 335 62 166 193 152 145 125 119 161 337 28 25 17 11 11 15 22 28 21 14 12 6 3 4 1 2 4 8 7 7 5 1 355 352 356 1 356 356 0 355 352 347 349